TimeMDT,TemperatureF,Dew PointF,Humidity,Sea Level PressureIn,VisibilityMPH,Wind Direction,Wind SpeedMPH,Gust SpeedMPH,PrecipitationIn,Events,Conditions,WindDirDegrees,DateUTC
12:42 AM,35.6,32.0,87,30.32,10.0,ENE,3.5,-,N/A,,Overcast,70,2012-10-06 06:42:00
12:53 AM,36.0,32.0,86,30.37,10.0,Calm,Calm,-,N/A,,Overcast,0,2012-10-06 06:53:00
1:06 AM,35.6,32.0,87,30.32,10.0,East,3.5,-,N/A,,Overcast,80,2012-10-06 07:06:00
1:16 AM,35.6,32.0,87,30.31,10.0,Calm,Calm,-,N/A,,Overcast,0,2012-10-06 07:16:00
1:53 AM,36.0,30.9,82,30.36,10.0,Calm,Calm,-,N/A,,Overcast,0,2012-10-06 07:53:00
2:53 AM,36.0,32.0,86,30.35,10.0,Calm,Calm,-,N/A,,Overcast,0,2012-10-06 08:53:00
3:53 AM,36.0,32.0,86,30.34,10.0,Calm,Calm,-,N/A,,Overcast,0,2012-10-06 09:53:00
4:53 AM,35.1,32.0,89,30.34,10.0,East,3.5,-,N/A,,Overcast,80,2012-10-06 10:53:00
5:11 AM,35.6,32.0,87,30.30,10.0,Calm,Calm,-,N/A,,Overcast,0,2012-10-06 11:11:00
5:53 AM,35.1,33.1,92,30.35,9.0,East,3.5,-,N/A,,Overcast,100,2012-10-06 11:53:00
6:50 AM,33.8,32.0,93,30.31,2.5,East,3.5,-,0.03,Snow,Light Snow,90,2012-10-06 12:50:00
6:53 AM,33.1,32.0,96,30.36,3.0,East,3.5,-,0.03,Snow,Light Snow,90,2012-10-06 12:53:00
7:12 AM,33.8,32.0,93,30.30,4.0,East,3.5,-,N/A,Snow,Light Snow,100,2012-10-06 13:12:00
7:34 AM,33.8,32.0,93,30.30,2.5,East,4.6,-,0.01,Snow,Light Snow,100,2012-10-06 13:34:00
7:44 AM,33.8,32.0,93,30.30,2.5,East,4.6,-,0.01,Snow,Light Snow,100,2012-10-06 13:44:00
7:53 AM,33.8,32.0,93,30.31,2.5,East,4.6,-,N/A,Snow,Light Snow,90,2012-10-06 13:53:00
8:07 AM,33.8,32.0,93,30.30,2.5,ESE,5.8,-,0.01,Snow,Light Snow,110,2012-10-06 14:07:00
8:53 AM,33.1,32.0,96,30.36,2.5,East,10.4,-,0.02,Snow,Light Snow,100,2012-10-06 14:53:00
9:27 AM,33.8,32.0,93,30.31,3.0,East,12.7,-,0.00,Snow,Light Snow,100,2012-10-06 15:27:00
9:53 AM,33.1,32.0,96,30.37,3.0,ESE,12.7,-,0.01,Snow,Light Snow,110,2012-10-06 15:53:00
10:13 AM,33.8,32.0,93,30.33,2.0,ESE,12.7,-,0.00,Snow,Light Snow,110,2012-10-06 16:13:00
10:28 AM,33.8,30.2,87,30.32,1.5,East,11.5,-,0.00,Snow,Light Snow,100,2012-10-06 16:28:00
10:53 AM,33.1,32.0,96,30.38,1.0,East,6.9,-,0.02,Snow,Light Snow,100,2012-10-06 16:53:00
11:02 AM,33.8,30.2,87,30.33,0.8,ESE,9.2,-,0.01,Snow,Light Snow,110,2012-10-06 17:02:00
11:31 AM,33.8,32.0,93,30.34,1.0,ESE,8.1,-,0.03,Snow,Light Snow,110,2012-10-06 17:31:00
11:53 AM,33.1,32.0,96,30.39,1.2,ESE,9.2,-,0.04,Snow,Light Snow,110,2012-10-06 17:53:00
12:02 PM,33.8,32.0,93,30.34,2.5,ESE,10.4,-,0.00,Snow,Light Snow,110,2012-10-06 18:02:00
12:05 PM,33.8,32.0,93,30.34,3.0,East,11.5,-,0.00,Snow,Light Snow,100,2012-10-06 18:05:00
12:12 PM,33.8,32.0,93,30.34,4.0,East,11.5,-,0.00,Snow,Light Snow,100,2012-10-06 18:12:00
12:53 PM,33.1,32.0,96,30.38,3.0,East,13.8,-,0.00,,Overcast,100,2012-10-06 18:53:00
1:20 PM,33.8,30.2,87,30.32,2.5,East,10.4,-,0.01,Snow,Light Snow,100,2012-10-06 19:20:00
1:53 PM,33.1,30.9,92,30.37,2.5,East,13.8,-,0.01,Snow,Light Snow,100,2012-10-06 19:53:00
2:48 PM,33.8,32.0,93,30.31,4.0,East,12.7,-,0.00,Snow,Light Snow,100,2012-10-06 20:48:00
2:53 PM,33.1,30.9,92,30.36,4.0,ESE,12.7,19.6,0.00,Snow,Light Snow,110,2012-10-06 20:53:00
3:53 PM,33.1,30.9,92,30.38,4.0,ENE,11.5,-,0.00,,Overcast,70,2012-10-06 21:53:00
4:11 PM,33.8,30.2,87,30.33,1.8,East,11.5,-,0.00,,Overcast,90,2012-10-06 22:11:00
4:23 PM,33.8,30.2,87,30.33,1.5,East,10.4,-,0.01,,Overcast,80,2012-10-06 22:23:00
4:39 PM,33.8,30.2,87,30.33,2.0,East,10.4,-,0.02,,Overcast,80,2012-10-06 22:39:00
4:51 PM,33.8,30.2,87,30.34,3.0,East,11.5,-,N/A,,Overcast,90,2012-10-06 22:51:00
4:53 PM,33.8,30.2,87,30.34,3.0,East,8.1,-,N/A,,Overcast,90,2012-10-06 22:53:00
5:00 PM,33.8,30.2,87,30.33,4.0,East,9.2,-,N/A,,Overcast,90,2012-10-06 23:00:00
5:10 PM,33.8,30.2,87,30.33,6.0,East,8.1,-,N/A,,Overcast,80,2012-10-06 23:10:00
5:27 PM,33.8,30.2,87,30.34,2.0,East,8.1,-,0.00,Snow,Light Snow,80,2012-10-06 23:27:00
5:30 PM,32.0,30.2,93,30.34,1.8,East,9.2,-,0.00,Snow,Light Snow,80,2012-10-06 23:30:00
5:41 PM,32.0,30.2,93,30.33,3.0,East,9.2,-,0.00,Snow,Light Snow,90,2012-10-06 23:41:00
5:51 PM,33.8,30.2,87,30.34,10.0,East,8.1,-,0.00,,Overcast,90,2012-10-06 23:51:00
5:53 PM,33.1,30.9,92,30.40,10.0,East,6.9,-,0.00,,Overcast,100,2012-10-06 23:53:00
6:01 PM,33.8,30.2,87,30.34,10.0,East,6.9,-,N/A,,Overcast,90,2012-10-07 00:01:00
6:53 PM,32.0,30.0,92,30.41,10.0,ESE,4.6,-,N/A,,Overcast,110,2012-10-07 00:53:00
7:02 PM,33.8,30.2,87,30.35,10.0,East,5.8,-,N/A,,Overcast,90,2012-10-07 01:02:00
7:18 PM,33.8,30.2,87,30.35,10.0,ESE,3.5,-,N/A,,Overcast,110,2012-10-07 01:18:00
7:53 PM,32.0,30.0,92,30.43,10.0,East,4.6,-,N/A,,Overcast,90,2012-10-07 01:53:00
8:04 PM,32.0,30.2,93,30.36,10.0,East,5.8,-,N/A,,Overcast,100,2012-10-07 02:04:00
8:20 PM,32.0,30.2,93,30.36,10.0,Calm,Calm,-,N/A,,Overcast,0,2012-10-07 02:20:00
8:53 PM,32.0,30.0,92,30.42,10.0,Calm,Calm,-,N/A,,Overcast,0,2012-10-07 02:53:00
9:53 PM,32.0,30.2,93,30.35,10.0,Calm,Calm,-,N/A,,Overcast,0,2012-10-07 03:53:00
10:15 PM,32.0,30.2,93,30.35,10.0,Calm,Calm,-,N/A,,Overcast,0,2012-10-07 04:15:00
10:30 PM,32.0,30.2,93,30.35,10.0,Calm,Calm,-,N/A,,Overcast,0,2012-10-07 04:30:00
10:42 PM,32.0,30.2,93,30.34,10.0,Calm,Calm,-,N/A,,Overcast,0,2012-10-07 04:42:00
10:53 PM,33.1,30.0,89,30.40,10.0,SSW,4.6,-,N/A,,Overcast,200,2012-10-07 04:53:00
11:53 PM,33.1,30.0,89,30.39,10.0,Calm,Calm,-,N/A,,Overcast,0,2012-10-07 05:53:00